IBE489 ENGM-ENTC

Flight info

Callsign IBE489
Flight time 1h 30m
Altitude 36000
Route RIBE1C RIBBE GIGNI SOMUB PENNO ATWEG ATWE1L
Aircraft B748/H-L/L

Departure

Time 2026-05-04 19:01
Airport Oslo-Gardermoen International Airport (ENGM)

Arrival

Time 2026-05-04 20:32
Airport Tromsø Airport (ENTC)
Time Latitude Longitude Altitude Speed Heading
2026-05-04 18:39 60.19358 11.11073 695 ft 0 kts 196°
2026-05-04 18:49 60.19367 11.11078 686 ft 4 kts 193°
2026-05-04 18:50 60.19393 11.11087 687 ft 4 kts 181°
2026-05-04 18:50 60.19420 11.11083 684 ft 4 kts 163°
2026-05-04 18:50 60.19442 11.11060 684 ft 4 kts 123°
2026-05-04 18:50 60.19446 11.11045 684 ft 2 kts 106°
2026-05-04 18:55 60.19445 11.11050 693 ft 2 kts 106°
2026-05-04 18:56 60.19435 11.11122 684 ft 9 kts 105°
2026-05-04 18:56 60.19444 11.11252 685 ft 11 kts 52°
2026-05-04 18:56 60.19523 11.11339 687 ft 15 kts 18°
2026-05-04 18:56 60.19634 11.11404 688 ft 17 kts 15°
2026-05-04 18:57 60.19744 11.11466 684 ft 16 kts 15°
2026-05-04 18:57 60.19846 11.11524 692 ft 14 kts 16°
2026-05-04 18:57 60.19939 11.11577 688 ft 13 kts 16°
2026-05-04 18:57 60.20023 11.11627 690 ft 12 kts 16°
2026-05-04 18:58 60.20100 11.11673 692 ft 11 kts 17°
2026-05-04 18:58 60.20154 11.11729 687 ft 6 kts 54°
2026-05-04 18:58 60.20162 11.11807 696 ft 6 kts 88°
2026-05-04 18:58 60.20155 11.11917 693 ft 9 kts 103°
2026-05-04 18:59 60.20139 11.12025 690 ft 7 kts 107°
2026-05-04 18:59 60.20118 11.12119 692 ft 9 kts 124°
2026-05-04 18:59 60.20067 11.12189 695 ft 9 kts 162°
2026-05-04 18:59 60.20012 11.12185 692 ft 7 kts 194°
2026-05-04 19:00 60.20004 11.12181 699 ft 1 kts 195°
2026-05-04 19:00 60.19999 11.12178 699 ft 1 kts 195°
2026-05-04 19:00 60.19915 11.12130 692 ft 40 kts 195°
2026-05-04 19:00 60.19436 11.11855 687 ft 101 kts 197°
2026-05-04 19:01 60.18607 11.11375 687 ft 145 kts 196°
2026-05-04 19:01 60.17525 11.10704 723 ft 180 kts 196°
2026-05-04 19:01 60.16279 11.10127 1252 ft 182 kts 193°
2026-05-04 19:01 60.15074 11.09844 2080 ft 169 kts 188°
2026-05-04 19:02 60.13862 11.09969 2298 ft 188 kts 179°
2026-05-04 19:02 60.12502 11.10547 2223 ft 216 kts 162°
2026-05-04 19:02 60.11213 11.12433 2179 ft 243 kts 139°
2026-05-04 19:02 60.10034 11.15110 2220 ft 266 kts 134°
2026-05-04 19:03 60.08825 11.17946 2361 ft 265 kts 135°
2026-05-04 19:03 60.07781 11.20922 2708 ft 267 kts 114°
2026-05-04 19:03 60.07469 11.24615 3127 ft 274 kts 84°
2026-05-04 19:03 60.08052 11.28215 3502 ft 275 kts 53°
2026-05-04 19:04 60.09326 11.31048 4006 ft 274 kts 37°
2026-05-04 19:04 60.10771 11.33538 4561 ft 274 kts 35°
2026-05-04 19:04 60.12204 11.36083 5095 ft 276 kts 39°
2026-05-04 19:04 60.13582 11.38800 5630 ft 279 kts 40°
2026-05-04 19:05 60.14978 11.41588 6172 ft 289 kts 40°
2026-05-04 19:05 60.16474 11.44360 6694 ft 290 kts 30°
2026-05-04 19:05 60.18258 11.46057 7238 ft 287 kts 14°
2026-05-04 19:05 60.20154 11.47412 7776 ft 289 kts 13°
2026-05-04 19:06 60.22063 11.48750 8312 ft 292 kts 14°
2026-05-04 19:06 60.23987 11.50143 8916 ft 296 kts 14°
2026-05-04 19:06 60.25932 11.51567 9536 ft 299 kts 14°
2026-05-04 19:06 60.27893 11.52996 10044 ft 305 kts 14°
2026-05-04 19:07 60.29925 11.54468 10397 ft 317 kts 14°
2026-05-04 19:07 60.32054 11.56014 10628 ft 333 kts 14°
2026-05-04 19:07 60.34283 11.57638 10771 ft 349 kts 15°
2026-05-04 19:07 60.36616 11.59348 11004 ft 362 kts 15°
2026-05-04 19:08 60.39011 11.61112 11428 ft 370 kts 15°
2026-05-04 19:08 60.41449 11.62894 11931 ft 374 kts 13°
2026-05-04 19:08 60.43976 11.64006 12438 ft 371 kts
2026-05-04 19:08 60.46550 11.64692 12999 ft 374 kts
2026-05-04 19:09 60.49143 11.65330 13546 ft 378 kts
2026-05-04 19:09 60.51766 11.66040 14032 ft 382 kts
2026-05-04 19:09 60.54410 11.66793 14534 ft 385 kts
2026-05-04 19:09 60.57077 11.67531 14977 ft 388 kts 360°
2026-05-04 19:10 60.59763 11.68254 15431 ft 391 kts 359°
2026-05-04 19:10 60.62472 11.68992 15872 ft 394 kts 359°
2026-05-04 19:10 60.65202 11.69749 16326 ft 397 kts 358°
2026-05-04 19:10 60.67950 11.70511 16801 ft 399 kts 358°
2026-05-04 19:11 60.70712 11.71271 17239 ft 402 kts 357°
2026-05-04 19:11 60.73498 11.72038 17670 ft 404 kts 357°
2026-05-04 19:11 60.76282 11.72800 18065 ft 406 kts 357°
2026-05-04 19:11 60.79053 11.73588 18433 ft 408 kts 356°
2026-05-04 19:12 60.81876 11.74371 18821 ft 410 kts 355°
2026-05-04 19:12 60.87501 11.74799 19621 ft 406 kts 350°
2026-05-04 19:12 60.90338 11.74937 19996 ft 409 kts 350°
2026-05-04 19:13 60.93187 11.75084 20345 ft 411 kts 349°
2026-05-04 19:13 60.96048 11.75220 20680 ft 412 kts 349°
2026-05-04 19:13 60.98935 11.75353 21007 ft 414 kts 349°
2026-05-04 19:13 61.01819 11.75489 21341 ft 416 kts 349°
2026-05-04 19:14 61.04723 11.75630 21659 ft 418 kts 349°
2026-05-04 19:14 61.07643 11.75773 21965 ft 419 kts 349°
2026-05-04 19:14 61.10566 11.75913 22266 ft 421 kts 349°
2026-05-04 19:14 61.13498 11.76053 22551 ft 423 kts 348°
2026-05-04 19:15 61.16425 11.76034 22839 ft 415 kts 342°
2026-05-04 19:15 61.19242 11.75168 23145 ft 402 kts 334°
2026-05-04 19:15 61.21876 11.73509 23395 ft 391 kts 326°
2026-05-04 19:15 61.24305 11.71149 23614 ft 381 kts 319°
2026-05-04 19:16 61.26491 11.68190 23842 ft 371 kts 311°
2026-05-04 19:16 61.28448 11.64753 24045 ft 367 kts 308°
2026-05-04 19:16 61.30376 11.61239 24237 ft 369 kts 309°
2026-05-04 19:16 61.32294 11.57778 24408 ft 372 kts 310°
2026-05-04 19:17 61.34460 11.54566 24606 ft 383 kts 317°
2026-05-04 19:17 61.36848 11.51939 24798 ft 395 kts 324°
2026-05-04 19:17 61.39434 11.49971 24963 ft 408 kts 332°
2026-05-04 19:17 61.42256 11.48717 25169 ft 422 kts 340°
2026-05-04 19:18 61.45238 11.48316 25431 ft 437 kts 347°
2026-05-04 19:18 61.48284 11.48343 25630 ft 439 kts 347°
2026-05-04 19:18 61.51342 11.48360 25757 ft 440 kts 347°
2026-05-04 19:18 61.54409 11.48363 25943 ft 441 kts 347°
2026-05-04 19:19 61.57486 11.48369 26162 ft 443 kts 347°
2026-05-04 19:19 61.60579 11.48383 26368 ft 445 kts 347°
2026-05-04 19:19 61.63688 11.48398 26587 ft 447 kts 347°
2026-05-04 19:19 61.66803 11.48408 26788 ft 448 kts 347°
2026-05-04 19:20 61.69929 11.48417 27013 ft 450 kts 347°
2026-05-04 19:20 61.73060 11.48428 27226 ft 452 kts 347°
2026-05-04 19:20 61.76219 11.48440 27558 ft 454 kts 348°
2026-05-04 19:20 61.79383 11.48452 27778 ft 456 kts 348°
2026-05-04 19:21 61.82566 11.48463 28023 ft 458 kts 349°
2026-05-04 19:21 61.85764 11.48474 28288 ft 461 kts 349°
2026-05-04 19:21 61.88976 11.48486 28549 ft 463 kts 349°
2026-05-04 19:21 61.92204 11.48499 28847 ft 465 kts 349°
2026-05-04 19:22 61.95461 11.48510 29144 ft 468 kts 349°
2026-05-04 19:22 61.98721 11.48522 29441 ft 470 kts 349°
2026-05-04 19:22 62.02031 11.48977 29746 ft 482 kts 355°
2026-05-04 19:22 62.05328 11.49743 30096 ft 484 kts 356°
2026-05-04 19:23 62.08735 11.50513 30363 ft 487 kts 356°
2026-05-04 19:23 62.12077 11.51267 30637 ft 491 kts 357°
2026-05-04 19:23 62.15488 11.52047 30929 ft 494 kts 357°
2026-05-04 19:23 62.18911 11.52836 31213 ft 497 kts 357°
2026-05-04 19:24 62.22363 11.53629 31523 ft 500 kts 357°
2026-05-04 19:24 62.25826 11.54421 31858 ft 503 kts 358°
2026-05-04 19:24 62.29321 11.55227 32191 ft 506 kts 358°
2026-05-04 19:24 62.32835 11.56041 32516 ft 509 kts 358°
2026-05-04 19:25 62.36370 11.56859 32916 ft 512 kts 359°
2026-05-04 19:25 62.39905 11.57682 33449 ft 511 kts 359°
2026-05-04 19:25 62.43446 11.58510 33937 ft 511 kts 359°
2026-05-04 19:25 62.46979 11.59332 34334 ft 511 kts 359°
2026-05-04 19:26 62.50506 11.60154 34666 ft 510 kts 359°
2026-05-04 19:26 62.57556 11.61813 34719 ft 508 kts 359°
2026-05-04 19:27 62.64588 11.63468 34732 ft 507 kts 359°
2026-05-04 19:27 62.71612 11.65132 34732 ft 508 kts
2026-05-04 19:28 62.78640 11.66806 34733 ft 508 kts
2026-05-04 19:28 62.85679 11.68489 34731 ft 508 kts
2026-05-04 19:29 62.92712 11.70180 34728 ft 508 kts
2026-05-04 19:29 62.99747 11.71878 34739 ft 508 kts
2026-05-04 19:30 63.06746 11.73578 34735 ft 509 kts
2026-05-04 19:30 63.12653 11.75018 34736 ft 509 kts
2026-05-04 19:31 63.20842 11.77024 34729 ft 509 kts
2026-05-04 19:31 63.26746 11.78476 34742 ft 510 kts
2026-05-04 19:32 63.33790 11.80294 34720 ft 512 kts
2026-05-04 19:32 63.40690 11.84969 34710 ft 520 kts 14°
2026-05-04 19:33 63.47509 11.90317 34712 ft 520 kts 14°
2026-05-04 19:33 63.54351 11.95671 34705 ft 521 kts 14°
2026-05-04 19:34 63.61191 12.01076 34703 ft 521 kts 15°
2026-05-04 19:34 63.68030 12.06493 34703 ft 521 kts 15°
2026-05-04 19:35 63.74858 12.11937 34698 ft 521 kts 15°
2026-05-04 19:35 63.81692 12.17410 34700 ft 521 kts 15°
2026-05-04 19:36 63.88479 12.22873 34678 ft 520 kts 15°
2026-05-04 19:36 63.95306 12.28401 34695 ft 521 kts 15°
2026-05-04 19:36 63.98723 12.31175 34875 ft 521 kts 15°
2026-05-04 19:37 64.02138 12.33958 34879 ft 521 kts 15°
2026-05-04 19:37 64.08955 12.39533 34881 ft 521 kts 15°
2026-05-04 19:38 64.15774 12.45138 34846 ft 521 kts 15°
2026-05-04 19:38 64.22600 12.50779 34794 ft 521 kts 15°
2026-05-04 19:39 64.29428 12.56450 34729 ft 521 kts 16°
2026-05-04 19:39 64.36200 12.62106 34661 ft 521 kts 16°
2026-05-04 19:40 64.43052 12.67858 34684 ft 521 kts 16°
2026-05-04 19:40 64.49868 12.73610 34650 ft 521 kts 16°
2026-05-04 19:41 64.56635 12.79352 34648 ft 521 kts 16°
2026-05-04 19:41 64.63457 12.85171 34650 ft 521 kts 17°
2026-05-04 19:42 64.70263 12.91008 34645 ft 521 kts 17°
2026-05-04 19:42 64.77075 12.96878 34641 ft 520 kts 17°
2026-05-04 19:43 64.83864 13.02767 34629 ft 520 kts 17°
2026-05-04 19:43 64.90664 13.08691 34633 ft 520 kts 17°
2026-05-04 19:44 64.97456 13.14643 34625 ft 520 kts 17°
2026-05-04 19:44 65.04198 13.20582 34643 ft 520 kts 17°
2026-05-04 19:45 65.10990 13.26600 34630 ft 520 kts 18°
2026-05-04 19:45 65.17763 13.32631 34630 ft 520 kts 18°
2026-05-04 19:46 65.24547 13.38706 34610 ft 522 kts 18°
2026-05-04 19:46 65.31337 13.44822 34608 ft 521 kts 18°
2026-05-04 19:47 65.38119 13.50961 34615 ft 520 kts 18°
2026-05-04 19:47 65.44884 13.57122 34617 ft 519 kts 18°
2026-05-04 19:48 65.51635 13.63302 34613 ft 519 kts 18°
2026-05-04 19:48 65.58393 13.69525 34614 ft 519 kts 18°
2026-05-04 19:49 65.65144 13.75771 34610 ft 520 kts 19°
2026-05-04 19:49 65.71845 13.82013 34612 ft 519 kts 19°
2026-05-04 19:50 65.78593 13.88328 34607 ft 519 kts 19°
2026-05-04 19:50 65.85326 13.94668 34607 ft 519 kts 19°
2026-05-04 19:51 65.92068 14.01050 34609 ft 519 kts 19°
2026-05-04 19:51 65.98808 14.07468 34609 ft 519 kts 19°
2026-05-04 19:52 66.05536 14.13910 34609 ft 519 kts 19°
2026-05-04 19:52 66.12254 14.20380 34610 ft 519 kts 19°
2026-05-04 19:53 66.18978 14.26892 34610 ft 519 kts 19°
2026-05-04 19:53 66.25704 14.33442 34603 ft 519 kts 20°
2026-05-04 19:54 66.32409 14.40013 34613 ft 518 kts 20°
2026-05-04 19:54 66.39108 14.46612 34604 ft 518 kts 20°
2026-05-04 19:55 66.45822 14.53267 34601 ft 518 kts 20°
2026-05-04 19:55 66.52522 14.59945 34593 ft 518 kts 20°
2026-05-04 19:56 66.59209 14.66650 34600 ft 516 kts 20°
2026-05-04 19:56 66.65881 14.73379 34597 ft 516 kts 20°
2026-05-04 19:57 66.72504 14.80096 34587 ft 516 kts 20°
2026-05-04 19:57 66.79160 14.86888 34587 ft 516 kts 20°
2026-05-04 19:58 66.85818 14.93719 34595 ft 515 kts 21°
2026-05-04 19:58 66.92462 15.00579 34602 ft 515 kts 21°
2026-05-04 19:59 66.99100 15.07471 34591 ft 515 kts 21°
2026-05-04 19:59 67.05737 15.14405 34595 ft 515 kts 21°
2026-05-04 20:00 67.12384 15.21388 34594 ft 515 kts 21°
2026-05-04 20:00 67.19014 15.28397 34590 ft 516 kts 21°
2026-05-04 20:01 67.25608 15.35409 34593 ft 515 kts 21°
2026-05-04 20:01 67.28929 15.38956 34469 ft 516 kts 21°
2026-05-04 20:01 67.32240 15.42503 34236 ft 514 kts 21°
2026-05-04 20:01 67.35539 15.46049 34015 ft 513 kts 21°
2026-05-04 20:02 67.38835 15.49601 33795 ft 512 kts 21°
2026-05-04 20:02 67.42123 15.53155 33571 ft 511 kts 21°
2026-05-04 20:02 67.45402 15.56709 33332 ft 511 kts 21°
2026-05-04 20:02 67.48683 15.60277 33077 ft 510 kts 21°
2026-05-04 20:03 67.51958 15.63851 32822 ft 509 kts 22°
2026-05-04 20:03 67.55229 15.67429 32447 ft 510 kts 22°
2026-05-04 20:03 67.58497 15.71015 32075 ft 509 kts 22°
2026-05-04 20:03 67.61761 15.74606 31711 ft 509 kts 22°
2026-05-04 20:04 67.65015 15.78200 31333 ft 506 kts 22°
2026-05-04 20:04 67.68252 15.81785 30973 ft 502 kts 22°
2026-05-04 20:04 67.71456 15.85343 30611 ft 498 kts 22°
2026-05-04 20:04 67.74636 15.88885 30251 ft 494 kts 22°
2026-05-04 20:05 67.77789 15.92407 29909 ft 490 kts 22°
2026-05-04 20:05 67.80916 15.95911 29536 ft 486 kts 22°
2026-05-04 20:05 67.84017 15.99396 29083 ft 482 kts 22°
2026-05-04 20:05 67.87090 16.02859 28649 ft 478 kts 22°
2026-05-04 20:06 67.90144 16.06311 28208 ft 475 kts 22°
2026-05-04 20:06 67.93134 16.09708 27793 ft 470 kts 24°
2026-05-04 20:06 67.96036 16.13668 27374 ft 466 kts 28°
2026-05-04 20:06 67.98865 16.17822 26829 ft 463 kts 29°
2026-05-04 20:07 68.01667 16.21979 26299 ft 458 kts 28°
2026-05-04 20:07 68.04451 16.26038 25778 ft 453 kts 28°
2026-05-04 20:07 68.07210 16.30040 25247 ft 449 kts 28°
2026-05-04 20:07 68.09933 16.34039 24747 ft 444 kts 29°
2026-05-04 20:08 68.12622 16.38026 24254 ft 440 kts 29°
2026-05-04 20:08 68.15286 16.41968 23754 ft 436 kts 29°
2026-05-04 20:08 68.17933 16.45878 23258 ft 432 kts 29°
2026-05-04 20:08 68.20552 16.49762 22701 ft 428 kts 29°
2026-05-04 20:09 68.23149 16.53636 22116 ft 425 kts 29°
2026-05-04 20:09 68.25721 16.57481 21546 ft 421 kts 29°
2026-05-04 20:09 68.28276 16.61305 20983 ft 418 kts 29°
2026-05-04 20:09 68.30801 16.65093 20440 ft 414 kts 29°
2026-05-04 20:10 68.33307 16.68864 19886 ft 411 kts 29°
2026-05-04 20:10 68.35796 16.72620 19374 ft 407 kts 29°
2026-05-04 20:10 68.38254 16.76336 18849 ft 403 kts 30°
2026-05-04 20:10 68.40691 16.80033 18336 ft 400 kts 30°
2026-05-04 20:11 68.43113 16.83715 17837 ft 396 kts 29°
2026-05-04 20:11 68.45505 16.87359 17274 ft 393 kts 29°
2026-05-04 20:11 68.47882 16.90988 16715 ft 390 kts 29°
2026-05-04 20:11 68.50234 16.94591 16162 ft 387 kts 29°
2026-05-04 20:12 68.52569 16.98176 15622 ft 384 kts 29°
2026-05-04 20:12 68.54886 17.01739 15083 ft 381 kts 29°
2026-05-04 20:12 68.57182 17.05280 14551 ft 378 kts 29°
2026-05-04 20:12 68.59461 17.08803 14051 ft 375 kts 29°
2026-05-04 20:13 68.61724 17.12310 13532 ft 372 kts 29°
2026-05-04 20:13 68.63970 17.15799 12994 ft 370 kts 29°
2026-05-04 20:13 68.66200 17.19269 12415 ft 367 kts 29°
2026-05-04 20:13 68.67671 17.21563 12068 ft 365 kts 29°
2026-05-04 20:14 68.69875 17.25007 11525 ft 362 kts 29°
2026-05-04 20:14 68.72059 17.28426 10993 ft 360 kts 29°
2026-05-04 20:14 68.74229 17.31833 10573 ft 355 kts 29°
2026-05-04 20:14 68.76330 17.35140 10527 ft 340 kts 29°
2026-05-04 20:15 68.78336 17.38303 10514 ft 325 kts 29°
2026-05-04 20:15 68.80260 17.41342 10435 ft 314 kts 29°
2026-05-04 20:15 68.82134 17.44309 10290 ft 307 kts 29°
2026-05-04 20:15 68.83963 17.47209 10131 ft 300 kts 29°
2026-05-04 20:16 68.85751 17.50051 9982 ft 293 kts 29°
2026-05-04 20:16 68.87504 17.52842 9830 ft 287 kts 29°
2026-05-04 20:16 68.89215 17.55570 9680 ft 281 kts 29°
2026-05-04 20:16 68.90900 17.58263 9536 ft 278 kts 29°
2026-05-04 20:17 68.92573 17.60941 9375 ft 276 kts 29°
2026-05-04 20:17 68.94235 17.63607 9244 ft 275 kts 29°
2026-05-04 20:17 68.95895 17.66271 9084 ft 275 kts 30°
2026-05-04 20:17 68.97549 17.68932 8953 ft 274 kts 30°
2026-05-04 20:18 68.99198 17.71592 8805 ft 273 kts 30°
2026-05-04 20:18 69.00822 17.74215 8660 ft 273 kts 30°
2026-05-04 20:18 69.02461 17.76865 8514 ft 272 kts 30°
2026-05-04 20:18 69.04095 17.79512 8408 ft 271 kts 30°
2026-05-04 20:19 69.05724 17.82158 8347 ft 271 kts 30°
2026-05-04 20:19 69.07211 17.85333 8304 ft 270 kts 43°
2026-05-04 20:19 69.08553 17.89052 8246 ft 271 kts 45°
2026-05-04 20:19 69.09878 17.92808 8190 ft 271 kts 44°
2026-05-04 20:20 69.11216 17.96521 8149 ft 271 kts 44°
2026-05-04 20:20 69.12563 18.00229 8092 ft 271 kts 44°
2026-05-04 20:20 69.13903 18.03944 8039 ft 270 kts 44°
2026-05-04 20:20 69.15238 18.07662 7986 ft 270 kts 44°
2026-05-04 20:21 69.16570 18.11378 7915 ft 270 kts 44°
2026-05-04 20:21 69.17898 18.15086 7876 ft 270 kts 44°
2026-05-04 20:21 69.20557 18.22530 7778 ft 270 kts 44°
2026-05-04 20:22 69.21886 18.26260 7721 ft 269 kts 44°
2026-05-04 20:22 69.23209 18.29981 7662 ft 269 kts 44°
2026-05-04 20:22 69.24530 18.33702 7616 ft 267 kts 45°
2026-05-04 20:22 69.25830 18.37372 7480 ft 268 kts 45°
2026-05-04 20:23 69.27145 18.41093 7208 ft 268 kts 45°
2026-05-04 20:23 69.28460 18.44818 6956 ft 267 kts 45°
2026-05-04 20:23 69.29775 18.48551 6688 ft 268 kts 45°
2026-05-04 20:23 69.31088 18.52283 6424 ft 268 kts 45°
2026-05-04 20:24 69.32467 18.55822 6174 ft 268 kts 35°
2026-05-04 20:24 69.34011 18.58801 5920 ft 269 kts 35°
2026-05-04 20:24 69.35547 18.61766 5782 ft 265 kts 35°
2026-05-04 20:24 69.37049 18.64687 5678 ft 259 kts 35°
2026-05-04 20:25 69.38505 18.67531 5620 ft 246 kts 35°
2026-05-04 20:25 69.39863 18.70182 5580 ft 225 kts 35°
2026-05-04 20:25 69.41102 18.72605 5499 ft 209 kts 36°
2026-05-04 20:25 69.42313 18.74747 5389 ft 205 kts 21°
2026-05-04 20:26 69.43679 18.75740 5332 ft 200 kts 13°
2026-05-04 20:26 69.44987 18.76514 5278 ft 185 kts 13°
2026-05-04 20:26 69.46212 18.77285 5068 ft 179 kts 14°
2026-05-04 20:26 69.47431 18.78089 4768 ft 180 kts 14°
2026-05-04 20:27 69.48651 18.78891 4492 ft 179 kts 14°
2026-05-04 20:27 69.49850 18.79679 4257 ft 174 kts 14°
2026-05-04 20:27 69.51027 18.80452 4002 ft 172 kts 14°
2026-05-04 20:27 69.52175 18.81208 3761 ft 168 kts 14°
2026-05-04 20:28 69.53309 18.81955 3544 ft 167 kts 14°
2026-05-04 20:28 69.54456 18.82600 3291 ft 168 kts 11°
2026-05-04 20:28 69.55612 18.83158 2979 ft 169 kts 11°
2026-05-04 20:28 69.56768 18.83712 2670 ft 168 kts 11°
2026-05-04 20:29 69.57899 18.84263 2369 ft 161 kts 12°
2026-05-04 20:29 69.58968 18.84949 2030 ft 155 kts 15°
2026-05-04 20:29 69.59996 18.85731 1658 ft 151 kts 18°
2026-05-04 20:29 69.60962 18.86613 1350 ft 144 kts 18°
2026-05-04 20:30 69.61910 18.87410 1117 ft 142 kts 15°
2026-05-04 20:30 69.62860 18.88092 967 ft 140 kts 17°
2026-05-04 20:30 69.63813 18.88776 841 ft 141 kts 16°
2026-05-04 20:30 69.64744 18.89441 696 ft 134 kts 15°
2026-05-04 20:31 69.65645 18.90083 433 ft 136 kts 16°
2026-05-04 20:31 69.66570 18.90693 271 ft 132 kts 16°
2026-05-04 20:31 69.67454 18.91305 55 ft 129 kts 16°
2026-05-04 20:31 69.68194 18.91801 42 ft 81 kts 13°
2026-05-04 20:32 69.68591 18.92059 42 ft 45 kts 13°
2026-05-04 20:32 69.68824 18.92212 38 ft 30 kts 12°
2026-05-04 20:32 69.68974 18.92311 39 ft 17 kts 13°
2026-05-04 20:32 69.69061 18.92255 39 ft 11 kts 343°
2026-05-04 20:33 69.69097 18.92290 38 ft 2 kts 59°
2026-05-04 20:33 69.69097 18.92334 38 ft 5 kts 97°
2026-05-04 20:33 69.69079 18.92369 38 ft 6 kts 166°
2026-05-04 20:33 69.69013 18.92344 38 ft 11 kts 192°
2026-05-04 20:34 69.68942 18.92294 39 ft 10 kts 194°
2026-05-04 20:34 69.68864 18.92240 38 ft 14 kts 194°
2026-05-04 20:34 69.68777 18.92178 38 ft 12 kts 190°
2026-05-04 20:34 69.68700 18.92134 40 ft 10 kts 192°
2026-05-04 20:35 69.68624 18.92085 41 ft 15 kts 193°
2026-05-04 20:35 69.68516 18.92013 45 ft 16 kts 193°
2026-05-04 20:35 69.68408 18.91938 45 ft 16 kts 194°
2026-05-04 20:35 69.68333 18.91783 43 ft 11 kts 262°
2026-05-04 20:36 69.68325 18.91582 43 ft 9 kts 247°
2026-05-04 20:36 69.68288 18.91484 43 ft 6 kts 202°
2026-05-04 20:36 69.68234 18.91436 44 ft 12 kts 195°
2026-05-04 20:36 69.68148 18.91377 44 ft 13 kts 193°
2026-05-04 20:37 69.68108 18.91276 45 ft 5 kts 257°
2026-05-04 20:37 69.68110 18.91177 45 ft 6 kts 278°
2026-05-04 20:37 69.68118 18.91053 45 ft 6 kts 282°
2026-05-04 20:37 69.68125 18.90972 45 ft 0 kts 281°
2026-05-04 20:55 69.68125 18.90971 43 ft 0 kts 281°